Location: Plum
(40.5000°N, 79.7500°W)
Time: 16:40:50
(UTC-05:00)

MOZ.5/SAFIR/RUBIN 5/SL-8 - Visible Passes

Search period start: 19 December 2014 00:00
Search period end: 29 December 2014 00:00
Orbit: 679 x 708 km, 97.8° (Epoch: 18 December)

Date Brightness Start Highest point End Pass type
(mag) Time Alt. Az. Time Alt. Az. Time Alt. Az.
19 Dec 6.0 04:25:47 10° ESE 04:29:24 22° ENE 04:30:23 21° NE visible
19 Dec 4.3 06:02:19 10° SSW 06:06:45 39° W 06:09:05 24° NW visible
19 Dec 3.8 18:00:36 10° NNE 18:05:11 55° E 18:09:43 10° S visible
19 Dec 6.5 19:39:37 10° NNW 19:42:19 16° WNW 19:45:01 10° W visible
20 Dec 4.4 05:04:42 10° SSE 05:09:20 54° ENE 05:10:56 36° NNE visible
20 Dec 5.4 06:44:27 10° SW 06:47:14 15° W 06:49:38 11° WNW visible
20 Dec 4.4 18:40:48 10° N 18:45:21 55° WNW 18:49:52 10° SSW visible
21 Dec 6.4 04:09:38 10° E 04:12:22 16° ENE 04:12:46 15° ENE visible
21 Dec 3.8 05:44:48 10° S 05:49:29 59° W 05:51:28 33° NW visible
21 Dec 4.3 17:43:36 10° NNE 17:47:54 36° E 17:52:10 10° SSE visible
21 Dec 6.0 19:21:43 10° NNW 19:25:17 22° WNW 19:28:49 10° WSW visible
22 Dec 5.2 04:47:52 10° SE 04:52:12 36° ENE 04:53:18 32° NE visible
22 Dec 5.0 06:26:09 10° SW 06:29:52 23° W 06:32:01 17° WNW visible
22 Dec 3.8 18:23:29 10° N 18:28:10 83° WNW 18:32:47 10° SSW visible
23 Dec 6.9 03:54:29 10° ENE 03:55:09 10° ENE 03:55:09 10° ENE visible
23 Dec 3.7 05:27:30 10° SSE 05:32:15 87° WSW 05:33:51 43° NNW visible
23 Dec 4.9 17:26:45 10° NE 17:30:34 25° E 17:34:20 10° SSE visible
23 Dec 5.4 19:04:04 10° N 19:08:11 32° WNW 19:12:16 10° SW visible
24 Dec 5.7 04:31:14 10° ESE 04:35:05 25° ENE 04:35:42 25° NE visible
24 Dec 4.5 06:08:15 10° SSW 06:12:32 33° W 06:14:24 25° NW visible
24 Dec 3.7 18:06:17 10° NNE 18:10:55 65° E 18:15:30 10° S visible
24 Dec 6.6 19:45:46 10° NW 19:47:58 13° WNW 19:50:09 10° W visible
25 Dec 4.1 05:10:22 10° SSE 05:15:03 63° ENE 05:16:14 46° NNE visible
25 Dec 5.6 06:50:53 10° WSW 06:53:03 13° W 06:54:57 11° WNW visible
25 Dec 4.7 18:46:35 10° N 18:51:02 47° WNW 18:55:27 10° SW visible
26 Dec 6.3 04:14:55 10° ESE 04:18:01 18° ENE 04:18:05 18° ENE visible
26 Dec 3.9 05:50:38 10° S 05:55:14 50° W 05:56:48 35° NW visible
26 Dec 4.1 17:49:12 10° NNE 17:53:38 43° E 17:58:01 10° S visible
26 Dec 6.2 19:27:39 10° NNW 19:30:55 19° WNW 19:34:10 10° WSW visible
27 Dec 4.9 04:53:26 10° SE 04:57:52 42° ENE 04:58:38 39° NE visible
27 Dec 5.1 06:32:15 10° SW 06:35:38 19° W 06:37:21 16° WNW visible
27 Dec 4.0 18:29:13 10° N 18:33:50 71° WNW 18:38:26 10° SSW visible
28 Dec 6.7 03:59:10 10° E 04:00:29 12° ENE 04:00:29 12° ENE visible
28 Dec 3.6 05:33:14 10° S 05:37:58 75° WSW 05:39:12 49° NNW visible
28 Dec 4.7 17:32:16 10° NE 17:36:17 29° E 17:40:17 10° SSE visible
28 Dec 5.7 19:09:54 10° N 19:13:49 28° WNW 19:17:43 10° SW visible
